Regional Weather Roundup
Issued by NWS

Home | Current Version | Previous Version | Text Only | Print | Product List | Glossary Off
Versions: 1 2 3 4 5 6 7 8 9 10 11 12 13 14 15 16 17 18 19 20 21 22 23 24 25 26 27 28

000
ASUS45 KCYS 241710
RWRWY

WYOMING REGIONAL WEATHER ROUNDUP
NATIONAL WEATHER SERVICE CHEYENNE WY
1000 AM MST SAT FEB 24 2018

NOTE:  "FAIR" INDICATES FEW OR NO CLOUDS BELOW 12,000 FEET
WITH NO SIGNIFICANT WEATHER AND/OR OBSTRUCTIONS TO VISIBILITY.

WYZ001-241800-
YELLOWSTONE NATIONAL PARK

CITY           SKY/WX    TMP DP  RH WIND       PRES   REMARKS
LK YELLOWSTONE   N/A      6  -1  73 VRB3      29.79S
W YELLOWSTONE  NOT AVBL

$$
WYZ002>013-054>058-071-098>099-241800-
NORTHERN WYOMING

CITY           SKY/WX    TMP DP  RH WIND       PRES   REMARKS
JACKSON        LGT SNOW  13   5  70 S18       29.88S WCI  -4
CODY           FAIR      22   4  46 W23G43    29.75F WCI   6
GREYBULL       PTSUNNY    1  -3  83 N5        29.86S WCI  -9
WORLAND        FAIR       7   4  87 N5        29.83F WCI  -2
SHERIDAN       FAIR      18   3  52 S3        29.74F
BUFFALO        PTSUNNY   20   2  45 SE6       29.73S WCI  12
GILLETTE       FAIR      19   8  62 W7        29.74F WCI  10
HULETT         FAIR      23  10  58 NW6       29.75S WCI  16
NEWCASTLE      FAIR      18  10  73 NW8       29.73F WCI   7

$$
WYZ014>020-022>026-101>103-241800-
CENTRAL WYOMING

CITY           SKY/WX    TMP DP  RH WIND       PRES   REMARKS
BIG PINEY      FAIR      11   0  61 E6        29.89F WCI   1
PINEDALE       PTSUNNY   10   1  67 NW3       29.89F
DUBOIS           N/A    N/A N/A N/A MISG        N/A
LANDER         FAIR      17   7  64 S7        29.79F WCI   8
RIVERTON       FAIR      20   1  43 W18       29.79S WCI   5
CASPER         PTSUNNY   12   3  67 SW21      29.80S WCI  -7
DOUGLAS        FAIR      20   6  55 NW22G31   29.75F WCI   3

$$
WYZ021-027>030-104>119-241800-
SOUTHERN WYOMING

CITY           SKY/WX    TMP DP  RH WIND       PRES   REMARKS
EVANSTON       FAIR      12   8  84 SW16      29.96S WCI  -5
ROCK SPRINGS   CLOUDY    13   5  70 W24G36    29.92F WCI  -7
DIXON          CLOUDY    15   1  54 SW15      29.98S WCI   0
RAWLINS        HAZE      11   5  77 W29G44    29.83S VSB 1   WCI -11
SARATOGA       CLOUDY    12   5  73 W24G30    29.86S WCI  -8
LARAMIE        FAIR      12   1  61 W30G41    29.74R WCI -10
CHEYENNE       FAIR      21   0  39 W30G39    29.69F WCI   3
TORRINGTON     FAIR      24   8  50 W23G36    29.76F WCI   9
PINE BLUFFS    FAIR      21   5  49 MISG      29.77F

$$




USA.gov is the U.S. government's official web portal to all federal, state and local government web resources and services.